| time (UTC) | temp F | wind direction | speed MPH | gust MPH | rain 1hr in | rain 24hr in | rain mn in | humidity % | barometer mb |
| 20260507110920 | 37 | 3 | 0.0 | 0.0 | 0.00 | 0.03 | 0.03 | 92 | |
| 20260507110416 | 37 | 2 | 0.0 | 0.0 | 0.00 | 0.03 | 0.03 | 92 | |
| 20260507105913 | 37 | 6 | 0.0 | 0.0 | 0.00 | 0.03 | 0.03 | 92 | |
| 20260507105409 | 37 | 37 | 1.0 | 1.0 | 0.00 | 0.03 | 0.03 | 91 | |
| 20260507104906 | 37 | 84 | 0.0 | 1.0 | 0.00 | 0.03 | 0.03 | 91 | |
| 20260507104403 | 37 | 3 | 0.0 | 0.0 | 0.00 | 0.03 | 0.03 | 91 | |
| 20260507103858 | 37 | 9 | 0.0 | 0.0 | 0.00 | 0.03 | 0.03 | 91 | |
| 20260507103355 | 37 | 0 | 0.0 | 0.0 | 0.00 | 0.03 | 0.03 | 91 | |
| 20260507102851 | 37 | 1 | 0.0 | 0.0 | 0.00 | 0.03 | 0.03 | 90 | |
| 20260507102348 | 37 | 345 | 0.0 | 0.0 | 0.00 | 0.03 | 0.03 | 90 | |
| 20260507101845 | 37 | 330 | 0.0 | 0.0 | 0.00 | 0.03 | 0.03 | 90 | |
| 20260507101344 | 37 | 345 | 0.0 | 0.0 | 0.00 | 0.03 | 0.03 | 90 | |
| 20260507100842 | 37 | 354 | 0.0 | 0.0 | 0.00 | 0.03 | 0.03 | 90 | |
| 20260507100340 | 38 | 9 | 0.0 | 1.0 | 0.00 | 0.03 | 0.03 | 90 | |
| 20260507095838 | 38 | 312 | 1.0 | 1.0 | 0.00 | 0.03 | 0.03 | 90 | |
| 20260507095334 | 38 | 330 | 0.0 | 1.0 | 0.00 | 0.03 | 0.03 | 89 | |
| 20260507094831 | 38 | 323 | 0.0 | 1.0 | 0.00 | 0.03 | 0.03 | 89 | |
| 20260507094328 | 37 | 224 | 1.0 | 2.0 | 0.00 | 0.03 | 0.03 | 89 | |
| 20260507093825 | 37 | 328 | 1.0 | 2.0 | 0.00 | 0.03 | 0.03 | 90 | |
| 20260507093324 | 37 | 349 | 0.0 | 1.0 | 0.00 | 0.03 | 0.03 | 89 | |
| 20260507092821 | 37 | 9 | 0.0 | 1.0 | 0.07 | 0.03 | 0.03 | 88 | |
| 20260507092318 | 38 | 37 | 0.0 | 1.0 | 0.19 | 0.03 | 0.03 | 87 | |
| 20260507091814 | 38 | 351 | 2.0 | 2.0 | 0.12 | 0.02 | 0.02 | 86 | |
| 20260507091310 | 39 | 5 | 3.0 | 9.0 | 0.00 | 0.00 | 0.00 | 84 | |
| 20260507090805 | 39 | 53 | 3.0 | 6.0 | 0.00 | 0.00 | 0.00 | 83 | |
| 20260507090302 | 39 | 40 | 1.0 | 2.0 | 0.00 | 0.00 | 0.00 | 83 | |
| 20260507085759 | 39 | 32 | 3.0 | 6.0 | 0.00 | 0.00 | 0.00 | 83 | |
| 20260507085256 | 39 | 32 | 2.0 | 3.0 | 0.00 | 0.00 | 0.00 | 83 | |
| 20260507084753 | 39 | 7 | 3.0 | 6.0 | 0.00 | 0.00 | 0.00 | 83 | |
| 20260507084249 | 39 | 10 | 0.0 | 5.0 | 0.00 | 0.00 | 0.00 | 82 | |
| 20260507083747 | 39 | 2 | 1.0 | 5.0 | 0.00 | 0.00 | 0.00 | 82 | |
| 20260507083244 | 39 | 357 | 1.0 | 8.0 | 0.00 | 0.00 | 0.00 | 81 | |
| 20260507082739 | 40 | 55 | 2.0 | 3.0 | 0.00 | 0.00 | 0.00 | 79 | |
| 20260507082235 | 40 | 36 | 2.0 | 2.0 | 0.00 | 0.00 | 0.00 | 78 | |
| 20260507081732 | 40 | 56 | 2.0 | 3.0 | 0.00 | 0.00 | 0.00 | 77 | |
| 20260507081228 | 40 | 154 | 1.0 | 3.0 | 0.00 | 0.00 | 0.00 | 76 | |
| 20260507080725 | 40 | 30 | 0.0 | 3.0 | 0.00 | 0.00 | 0.00 | 74 | |
| 20260507080221 | 40 | 24 | 0.0 | 3.0 | 0.00 | 0.00 | 0.00 | 71 | |
| 20260507075717 | 40 | 6 | 0.0 | 3.0 | 0.00 | 0.00 | 0.00 | 70 | |
| 20260507075214 | 40 | 16 | 0.0 | 3.0 | 0.00 | 0.00 | 0.00 | 69 | |
| 20260507074710 | 40 | 22 | 0.0 | 1.0 | 0.00 | 0.00 | 0.00 | 68 | |
| 20260507074208 | 40 | 34 | 0.0 | 1.0 | 0.00 | 0.00 | 0.00 | 68 | |
| 20260507073704 | 40 | 9 | 0.0 | 1.0 | 0.00 | 0.00 | 0.00 | 67 | |
| 20260507073200 | 40 | 51 | 1.0 | 2.0 | 0.00 | 0.00 | 0.00 | 67 | |
| 20260507072659 | 40 | 5 | 0.0 | 0.0 | 0.00 | 0.00 | 0.00 | 67 | |
| 20260507072156 | 40 | 42 | 0.0 | 1.0 | 0.00 | 0.00 | 0.00 | 68 | |
| 20260507071653 | 40 | 18 | 0.0 | 0.0 | 0.00 | 0.00 | 0.00 | 68 | |
| 20260507071149 | 40 | 7 | 0.0 | 1.0 | 0.00 | 0.00 | 0.00 | 68 | |
| 20260507070647 | 40 | 359 | 0.0 | 0.0 | 0.00 | 0.00 | 0.00 | 69 | |
| 20260507070143 | 40 | 3 | 0.0 | 1.0 | 0.00 | 0.00 | 0.00 | 70 | |
| 20260507065639 | 40 | 3 | 0.0 | 0.0 | 0.00 | 0.00 | 0.00 | 71 | |
| 20260507065137 | 40 | 22 | 0.0 | 0.0 | 0.00 | 0.00 | 0.00 | 73 | |
| 20260507064634 | 40 | 24 | 1.0 | 2.0 | 0.00 | 0.00 | 0.00 | 73 | |
| 20260507064133 | 40 | 17 | 0.0 | 1.0 | 0.00 | 0.00 | 0.00 | 73 | |
| 20260507063630 | 40 | 49 | 0.0 | 1.0 | 0.00 | 0.00 | 0.00 | 73 | |
| 20260507063127 | 40 | 87 | 0.0 | 2.0 | 0.00 | 0.00 | 0.00 | 73 | |
| 20260507062623 | 40 | 68 | 2.0 | 2.0 | 0.00 | 0.00 | 0.00 | 72 | |
| 20260507062121 | 40 | 4 | 0.0 | 0.0 | 0.00 | 0.00 | 0.00 | 72 | |
| 20260507061619 | 40 | 2 | 0.0 | 0.0 | 0.00 | 0.00 | 0.00 | 72 | |
| 20260507061117 | 40 | 7 | 0.0 | 0.0 | 0.00 | 0.00 | 0.00 | 72 | |
| 20260507060615 | 40 | 1 | 0.0 | 0.0 | 0.00 | 0.00 | 0.00 | 72 | |
| 20260507060111 | 40 | 341 | 0.0 | 0.0 | 0.00 | 0.00 | 0.00 | 72 | |
| 20260507055606 | 40 | 52 | 0.0 | 0.0 | 0.00 | 0.00 | 0.00 | 72 | |
| 20260507055102 | 40 | 8 | 0.0 | 0.0 | 0.00 | 0.00 | 0.00 | 72 | |
| 20260507054558 | 40 | 14 | 0.0 | 0.0 | 0.00 | 0.00 | 0.00 | 72 | |
| 20260507054056 | 40 | 33 | 0.0 | 0.0 | 0.00 | 0.00 | 0.00 | 73 | |
| 20260507053553 | 40 | 8 | 0.0 | 0.0 | 0.00 | 0.00 | 0.00 | 73 | |
| 20260507053052 | 40 | 7 | 0.0 | 0.0 | 0.00 | 0.00 | 0.00 | 73 | |
| 20260507052549 | 40 | 10 | 0.0 | 0.0 | 0.00 | 0.00 | 0.00 | 73 | |
| 20260507052046 | 40 | 17 | 0.0 | 0.0 | 0.00 | 0.00 | 0.00 | 73 | |
| 20260507051543 | 40 | 16 | 0.0 | 0.0 | 0.00 | 0.00 | 0.00 | 73 | |
| 20260507051040 | 40 | 16 | 0.0 | 0.0 | 0.00 | 0.00 | 0.00 | 72 | |
| 20260507050537 | 40 | 16 | 0.0 | 0.0 | 0.00 | 0.00 | 0.00 | 72 | |
| 20260507050033 | 40 | 16 | 0.0 | 0.0 | 0.00 | 0.00 | 0.00 | 72 | |
| 20260507045530 | 40 | 16 | 0.0 | 0.0 | 0.00 | 0.00 | 0.00 | 73 | |
| 20260507045027 | 40 | 16 | 0.0 | 0.0 | 0.00 | 0.00 | 0.00 | 73 | |
| 20260507044524 | 39 | 16 | 0.0 | 0.0 | 0.00 | 0.00 | 0.00 | 73 | |
| 20260507044021 | 39 | 8 | 0.0 | 0.0 | 0.00 | 0.00 | 0.00 | 73 | |
| 20260507043516 | 39 | 7 | 0.0 | 0.0 | 0.00 | 0.00 | 0.00 | 73 | |
| 20260507043014 | 39 | 7 | 0.0 | 0.0 | 0.00 | 0.00 | 0.00 | 73 | |
| 20260507042510 | 39 | 8 | 0.0 | 0.0 | 0.00 | 0.00 | 0.00 | 73 | |
| 20260507042005 | 39 | 7 | 0.0 | 0.0 | 0.00 | 0.00 | 0.00 | 74 | |
| 20260507041503 | 39 | 7 | 0.0 | 0.0 | 0.00 | 0.00 | 0.00 | 75 | |
| 20260507040959 | 39 | 7 | 0.0 | 0.0 | 0.00 | 0.00 | 0.00 | 74 | |
| 20260507040455 | 39 | 7 | 0.0 | 0.0 | 0.00 | 0.00 | 0.00 | 74 | |
| 20260507035951 | 39 | 7 | 0.0 | 0.0 | 0.00 | 0.22 | 0.22 | 74 | |
| 20260507035448 | 39 | 7 | 0.0 | 0.0 | 0.00 | 0.22 | 0.22 | 74 | |
| 20260507034945 | 39 | 7 | 0.0 | 0.0 | 0.00 | 0.22 | 0.22 | 74 | |
| 20260507034442 | 39 | 8 | 0.0 | 0.0 | 0.00 | 0.22 | 0.22 | 74 | |
| 20260507033940 | 39 | 8 | 0.0 | 0.0 | 0.00 | 0.22 | 0.22 | 73 | |
| 20260507033437 | 39 | 7 | 0.0 | 0.0 | 0.00 | 0.22 | 0.22 | 71 | |
| 20260507032934 | 39 | 7 | 0.0 | 0.0 | 0.00 | 0.22 | 0.22 | 71 | |
| 20260507032431 | 39 | 9 | 0.0 | 0.0 | 0.00 | 0.22 | 0.22 | 71 | |
| 20260507031927 | 39 | 11 | 0.0 | 0.0 | 0.00 | 0.22 | 0.22 | 70 | |
| 20260507031426 | 39 | 8 | 0.0 | 0.0 | 0.00 | 0.22 | 0.22 | 70 | |
| 20260507030921 | 39 | 7 | 0.0 | 0.0 | 0.00 | 0.22 | 0.22 | 69 | |
| 20260507030418 | 40 | 8 | 0.0 | 0.0 | 0.00 | 0.22 | 0.22 | 69 | |
| 20260507025915 | 40 | 8 | 0.0 | 0.0 | 0.00 | 0.22 | 0.22 | 69 | |
| 20260507025412 | 40 | 7 | 0.0 | 0.0 | 0.00 | 0.22 | 0.22 | 69 | |
| 20260507024910 | 40 | 8 | 0.0 | 0.0 | 0.00 | 0.22 | 0.22 | 68 | |
| 20260507024407 | 41 | 2 | 0.0 | 0.0 | 0.00 | 0.22 | 0.22 | 67 | |
| 20260507023903 | 41 | 1 | 0.0 | 0.0 | 0.00 | 0.22 | 0.22 | 66 | |
| 20260507023400 | 41 | 13 | 0.0 | 0.0 | 0.00 | 0.22 | 0.22 | 65 | |
| 20260507022857 | 41 | 15 | 0.0 | 0.0 | 0.00 | 0.22 | 0.22 | 64 | |
| 20260507022353 | 42 | 7 | 0.0 | 0.0 | 0.00 | 0.22 | 0.22 | 62 | |
| 20260507021849 | 42 | 12 | 0.0 | 0.0 | 0.00 | 0.22 | 0.22 | 63 | |
| 20260507021345 | 42 | 13 | 0.0 | 0.0 | 0.00 | 0.22 | 0.22 | 64 | |
| 20260507020843 | 42 | 9 | 0.0 | 0.0 | 0.00 | 0.22 | 0.22 | 64 | |
| 20260507020339 | 42 | 0 | 0.0 | 0.0 | 0.00 | 0.22 | 0.22 | 64 | |
| 20260507015836 | 42 | 340 | 0.0 | 0.0 | 0.00 | 0.22 | 0.22 | 61 | |
| 20260507015334 | 42 | 9 | 0.0 | 0.0 | 0.00 | 0.22 | 0.22 | 60 | |
| 20260507014831 | 42 | 13 | 0.0 | 0.0 | 0.00 | 0.22 | 0.22 | 60 | |
| 20260507014327 | 43 | 7 | 0.0 | 0.0 | 0.00 | 0.22 | 0.22 | 60 | |
| 20260507013824 | 43 | 353 | 0.0 | 0.0 | 0.00 | 0.22 | 0.22 | 58 | |
| 20260507013321 | 43 | 5 | 0.0 | 0.0 | 0.00 | 0.22 | 0.22 | 57 | |
| 20260507012819 | 43 | 12 | 0.0 | 0.0 | 0.00 | 0.22 | 0.22 | 57 | |
| 20260507012314 | 44 | 11 | 0.0 | 0.0 | 0.00 | 0.22 | 0.22 | 56 | |
| 20260507011812 | 44 | 35 | 0.0 | 0.0 | 0.00 | 0.22 | 0.22 | 55 | |
| 20260507011309 | 44 | 349 | 0.0 | 0.0 | 0.00 | 0.22 | 0.22 | 54 | |
| 20260507010808 | 44 | 13 | 0.0 | 0.0 | 0.00 | 0.22 | 0.22 | 54 | |
| 20260507010304 | 44 | 14 | 0.0 | 0.0 | 0.00 | 0.22 | 0.22 | 54 | |
| 20260507005802 | 45 | 28 | 0.0 | 1.0 | 0.00 | 0.22 | 0.22 | 53 | |
| 20260507005258 | 45 | 38 | 0.0 | 1.0 | 0.00 | 0.22 | 0.22 | 53 | |
| 20260507004755 | 45 | 4 | 1.0 | 2.0 | 0.00 | 0.22 | 0.22 | 53 | |
| 20260507004252 | 45 | 45 | 1.0 | 3.0 | 0.00 | 0.22 | 0.22 | 52 | |
| 20260507003748 | 45 | 34 | 1.0 | 2.0 | 0.00 | 0.22 | 0.22 | 51 | |
| 20260507003243 | 46 | 33 | 3.0 | 3.0 | 0.00 | 0.22 | 0.22 | 51 | |
| 20260507002740 | 46 | 4 | 1.0 | 5.0 | 0.00 | 0.22 | 0.22 | 51 | |
| 20260507002236 | 46 | 45 | 2.0 | 3.0 | 0.00 | 0.22 | 0.22 | 50 | |
| 20260507001733 | 46 | 45 | 1.0 | 5.0 | 0.00 | 0.22 | 0.22 | 50 | |
| 20260507001231 | 46 | 10 | 2.0 | 3.0 | 0.00 | 0.22 | 0.22 | 50 | |
| 20260507000727 | 46 | 24 | 1.0 | 3.0 | 0.00 | 0.22 | 0.22 | 49 | |
| 20260507000222 | 46 | 75 | 3.0 | 7.0 | 0.00 | 0.22 | 0.22 | 49 | |
| 20260506235719 | 47 | 7 | 3.0 | 7.0 | 0.00 | 0.22 | 0.22 | 48 | |
| 20260506235214 | 47 | 84 | 2.0 | 3.0 | 0.00 | 0.22 | 0.22 | 49 | |
| 20260506234712 | 47 | 335 | 1.0 | 2.0 | 0.00 | 0.22 | 0.22 | 49 | |
| 20260506234209 | 47 | 347 | 6.0 | 8.0 | 0.00 | 0.22 | 0.22 | 49 | |
| 20260506233707 | 48 | 344 | 1.0 | 6.0 | 0.00 | 0.22 | 0.22 | 49 | |
| 20260506233203 | 48 | 20 | 3.0 | 6.0 | 0.00 | 0.22 | 0.22 | 49 | |
| 20260506232659 | 48 | 36 | 2.0 | 8.0 | 0.00 | 0.22 | 0.22 | 49 | |
| 20260506232154 | 48 | 44 | 3.0 | 7.0 | 0.00 | 0.22 | 0.22 | 49 | |
| 20260506231652 | 48 | 357 | 2.0 | 13.0 | 0.00 | 0.22 | 0.22 | 49 | |
| 20260506231151 | 49 | 42 | 2.0 | 8.0 | 0.00 | 0.22 | 0.22 | 50 | |
| 20260506230647 | 49 | 13 | 4.0 | 8.0 | 0.00 | 0.22 | 0.22 | 49 | |
| 20260506230144 | 49 | 4 | 1.0 | 7.0 | 0.00 | 0.22 | 0.22 | 51 | |
| 20260506225640 | 50 | 44 | 2.0 | 11.0 | 0.00 | 0.22 | 0.22 | 50 | |
| 20260506225137 | 49 | 87 | 5.0 | 6.0 | 0.00 | 0.22 | 0.22 | 50 | |
| 20260506224633 | 49 | 78 | 2.0 | 6.0 | 0.00 | 0.22 | 0.22 | 51 | |
| 20260506224130 | 49 | 69 | 3.0 | 7.0 | 0.00 | 0.22 | 0.22 | 51 | |
| 20260506223626 | 50 | 327 | 1.0 | 3.0 | 0.00 | 0.22 | 0.22 | 52 | |
| 20260506223122 | 50 | 29 | 2.0 | 7.0 | 0.00 | 0.22 | 0.22 | 51 | |
| 20260506222620 | 50 | 82 | 4.0 | 7.0 | 0.00 | 0.22 | 0.22 | 50 | |
| 20260506222116 | 52 | 44 | 1.0 | 3.0 | 0.00 | 0.22 | 0.22 | 49 | |
| 20260506221614 | 52 | 68 | 5.0 | 8.0 | 0.00 | 0.22 | 0.22 | 48 | |
| 20260506221112 | 52 | 58 | 4.0 | 11.0 | 0.00 | 0.22 | 0.22 | 50 | |
| 20260506220608 | 52 | 69 | 4.0 | 8.0 | 0.00 | 0.22 | 0.22 | 49 | |
| 20260506215600 | 53 | 33 | 2.0 | 9.0 | 0.00 | 0.22 | 0.22 | 49 | |
| 20260506215055 | 53 | 27 | 3.0 | 9.0 | 0.00 | 0.22 | 0.22 | 49 | |
| 20260506214553 | 53 | 38 | 4.0 | 9.0 | 0.00 | 0.22 | 0.22 | 49 | |
| 20260506214050 | 53 | 28 | 3.0 | 5.0 | 0.00 | 0.22 | 0.22 | 54 | |
| 20260506213548 | 51 | 64 | 1.0 | 1.0 | 0.00 | 0.22 | 0.22 | 61 | |
| 20260506213045 | 52 | 348 | 0.0 | 1.0 | 0.00 | 0.22 | 0.22 | 63 | |
| 20260506212542 | 49 | 281 | 2.0 | 2.0 | 0.00 | 0.22 | 0.22 | 65 | |
| 20260506212036 | 49 | 265 | 2.0 | 3.0 | 0.00 | 0.22 | 0.22 | 67 | |
| 20260506211533 | 48 | 279 | 0.0 | 2.0 | 0.00 | 0.22 | 0.22 | 67 | |
| 20260506211030 | 48 | 325 | 0.0 | 2.0 | 0.00 | 0.22 | 0.22 | 67 | |
| 20260506210526 | 49 | 357 | 2.0 | 2.0 | 0.00 | 0.22 | 0.22 | 66 | |
| 20260506210023 | 49 | 211 | 1.0 | 2.0 | 0.00 | 0.22 | 0.22 | 67 | |
| 20260506205520 | 48 | 14 | 1.0 | 2.0 | 0.00 | 0.22 | 0.22 | 67 | |
| 20260506205015 | 48 | 333 | 0.0 | 2.0 | 0.00 | 0.22 | 0.22 | 68 | |
| 20260506204514 | 48 | 358 | 0.0 | 1.0 | 0.00 | 0.22 | 0.22 | 67 | |
| 20260506204010 | 48 | 340 | 1.0 | 2.0 | 0.00 | 0.22 | 0.22 | 67 | |
| 20260506203508 | 48 | 309 | 1.0 | 2.0 | 0.00 | 0.22 | 0.22 | 67 | |
| 20260506203004 | 48 | 244 | 0.0 | 5.0 | 0.00 | 0.22 | 0.22 | 69 | |
| 20260506202502 | 48 | 225 | 2.0 | 5.0 | 0.00 | 0.22 | 0.22 | 68 | |
| 20260506201958 | 49 | 231 | 0.0 | 5.0 | 0.00 | 0.22 | 0.22 | 69 | |
| 20260506201456 | 49 | 303 | 0.0 | 2.0 | 0.00 | 0.22 | 0.22 | 68 | |
| 20260506200952 | 48 | 224 | 1.0 | 5.0 | 0.00 | 0.22 | 0.22 | 69 | |
| 20260506200449 | 48 | 176 | 0.0 | 3.0 | 0.00 | 0.22 | 0.22 | 69 | |
| 20260506195945 | 48 | 79 | 1.0 | 2.0 | 0.00 | 0.22 | 0.22 | 68 | |
| 20260506195442 | 48 | 348 | 0.0 | 2.0 | 0.00 | 0.22 | 0.22 | 69 | |
| 20260506194938 | 48 | 335 | 0.0 | 3.0 | 0.00 | 0.22 | 0.22 | 69 | |
| 20260506194436 | 47 | 352 | 0.0 | 2.0 | 0.00 | 0.22 | 0.22 | 71 | |
| 20260506193933 | 47 | 342 | 0.0 | 1.0 | 0.00 | 0.22 | 0.22 | 71 | |
| 20260506193430 | 46 | 5 | 0.0 | 1.0 | 0.00 | 0.22 | 0.22 | 72 | |
| 20260506192926 | 46 | 345 | 0.0 | 3.0 | 0.00 | 0.22 | 0.22 | 72 | |
| 20260506192423 | 46 | 67 | 0.0 | 5.0 | 0.00 | 0.22 | 0.22 | 71 | |
| 20260506191920 | 46 | 36 | 0.0 | 5.0 | 0.00 | 0.22 | 0.22 | 71 | |
| 20260506191417 | 46 | 19 | 2.0 | 6.0 | 0.00 | 0.22 | 0.22 | 71 | |
| 20260506190914 | 46 | 334 | 0.0 | 1.0 | 0.00 | 0.22 | 0.22 | 74 | |
| 20260506190410 | 46 | 10 | 1.0 | 3.0 | 0.00 | 0.22 | 0.22 | 73 | |
| 20260506185907 | 45 | 2 | 0.0 | 2.0 | 0.00 | 0.22 | 0.22 | 77 | |
| 20260506185404 | 45 | 340 | 1.0 | 5.0 | 0.00 | 0.22 | 0.22 | 76 | |
| 20260506184901 | 44 | 7 | 1.0 | 2.0 | 0.00 | 0.22 | 0.22 | 76 | |
| 20260506184358 | 44 | 67 | 2.0 | 5.0 | 0.00 | 0.22 | 0.22 | 76 | |
| 20260506183855 | 44 | 57 | 0.0 | 5.0 | 0.00 | 0.22 | 0.22 | 79 | |
| 20260506183350 | 44 | 0 | 1.0 | 5.0 | 0.00 | 0.22 | 0.22 | 81 | |
| 20260506182848 | 43 | 4 | 1.0 | 5.0 | 0.00 | 0.22 | 0.22 | 82 | |
| 20260506182345 | 43 | 69 | 1.0 | 3.0 | 0.00 | 0.22 | 0.22 | 83 | |
| 20260506181842 | 43 | 299 | 1.0 | 1.0 | 0.00 | 0.22 | 0.22 | 84 | |
| 20260506181340 | 43 | 20 | 0.0 | 3.0 | 0.00 | 0.22 | 0.22 | 84 | |
| 20260506180837 | 43 | 11 | 1.0 | 5.0 | 0.00 | 0.22 | 0.22 | 85 | |
| 20260506180333 | 43 | 47 | 0.0 | 3.0 | 0.00 | 0.22 | 0.22 | 87 | |
| 20260506175829 | 42 | 25 | 1.0 | 7.0 | 0.00 | 0.22 | 0.22 | 88 | |
| 20260506175327 | 41 | 347 | 0.0 | 3.0 | 0.00 | 0.22 | 0.22 | 89 | |
| 20260506174824 | 41 | 21 | 1.0 | 3.0 | 0.00 | 0.22 | 0.22 | 90 | |
| 20260506174321 | 41 | 85 | 1.0 | 5.0 | 0.00 | 0.22 | 0.22 | 90 | |
| 20260506173818 | 41 | 32 | 1.0 | 8.0 | 0.00 | 0.22 | 0.22 | 91 | |
| 20260506173315 | 41 | 122 | 2.0 | 6.0 | 0.05 | 0.22 | 0.22 | 92 | |
| 20260506172812 | 40 | 22 | 3.0 | 6.0 | 0.05 | 0.22 | 0.22 | 93 | |
| 20260506172309 | 41 | 52 | 3.0 | 7.0 | 0.00 | 0.21 | 0.21 | 93 | |
| 20260506171806 | 41 | 167 | 2.0 | 5.0 | 0.00 | 0.21 | 0.21 | 94 | |
| 20260506171303 | 42 | 106 | 2.0 | 5.0 | 0.00 | 0.21 | 0.21 | 94 | |
| 20260506170801 | 42 | 25 | 3.0 | 6.0 | 0.07 | 0.21 | 0.21 | 93 | |
| 20260506170257 | 42 | 358 | 1.0 | 8.0 | 0.07 | 0.21 | 0.21 | 93 | |
| 20260506165756 | 43 | 315 | 4.0 | 8.0 | 0.00 | 0.20 | 0.20 | 93 | |
| 20260506165253 | 43 | 45 | 3.0 | 9.0 | 0.00 | 0.20 | 0.20 | 92 | |
| 20260506164749 | 45 | 38 | 2.0 | 9.0 | 0.00 | 0.20 | 0.20 | 92 | |
| 20260506164246 | 47 | 357 | 0.0 | 2.0 | 0.00 | 0.20 | 0.20 | 93 | |
| 20260506163743 | 48 | 328 | 0.0 | 1.0 | 0.00 | 0.20 | 0.20 | 94 | |
| 20260506163238 | 48 | 220 | 1.0 | 2.0 | 0.00 | 0.20 | 0.20 | 94 | |
| 20260506162734 | 47 | 291 | 1.0 | 2.0 | 0.00 | 0.20 | 0.20 | 94 | |
| 20260506162232 | 47 | 276 | 1.0 | 2.0 | 0.00 | 0.20 | 0.20 | 95 | |
| 20260506161729 | 47 | 219 | 2.0 | 3.0 | 0.00 | 0.20 | 0.20 | 95 | |
| 20260506161226 | 47 | 340 | 0.0 | 2.0 | 0.00 | 0.20 | 0.20 | 96 | |
| 20260506160724 | 46 | 275 | 1.0 | 2.0 | 0.00 | 0.20 | 0.20 | 97 | |
| 20260506160220 | 46 | 341 | 1.0 | 2.0 | 0.00 | 0.20 | 0.20 | 97 | |
| 20260506155719 | 46 | 270 | 2.0 | 3.0 | 0.00 | 0.20 | 0.20 | 97 | |
| 20260506155216 | 46 | 321 | 0.0 | 2.0 | 0.05 | 0.20 | 0.20 | 98 | |
| 20260506153323 | 45 | 305 | 1.0 | 2.0 | 0.00 | 0.19 | 0.19 | 98 | |
| 20260506152820 | 45 | 340 | 0.0 | 0.0 | 0.00 | 0.19 | 0.19 | 98 | |
| 20260506152317 | 45 | 329 | 1.0 | 1.0 | 0.00 | 0.19 | 0.19 | 98 | |
| 20260506151816 | 44 | 342 | 1.0 | 2.0 | 0.00 | 0.19 | 0.19 | 98 | |
| 20260506151312 | 44 | 337 | 0.0 | 1.0 | 0.00 | 0.19 | 0.19 | 98 | |
| 20260506150809 | 44 | 258 | 2.0 | 3.0 | 0.00 | 0.19 | 0.19 | 98 | |
| 20260506150306 | 44 | 328 | 0.0 | 1.0 | 0.00 | 0.19 | 0.19 | 98 | |
| 20260506145803 | 44 | 213 | 1.0 | 2.0 | 0.00 | 0.19 | 0.19 | 98 | |
| 20260506145259 | 44 | 328 | 0.0 | 1.0 | 0.07 | 0.19 | 0.19 | 98 | |
| 20260506144757 | 44 | 354 | 0.0 | 1.0 | 0.07 | 0.19 | 0.19 | 98 | |
| 20260506144254 | 44 | 351 | 0.0 | 0.0 | 0.00 | 0.18 | 0.18 | 98 | |
| 20260506143752 | 44 | 345 | 0.0 | 0.0 | 0.00 | 0.18 | 0.18 | 98 | |
| 20260506143248 | 44 | 346 | 0.0 | 0.0 | 0.00 | 0.18 | 0.18 | 98 | |
| 20260506142747 | 44 | 263 | 0.0 | 2.0 | 0.00 | 0.18 | 0.18 | 98 | |
| 20260506142245 | 44 | 331 | 0.0 | 2.0 | 0.00 | 0.18 | 0.18 | 98 | |
| 20260506141743 | 44 | 343 | 0.0 | 1.0 | 0.00 | 0.18 | 0.18 | 98 | |
| 20260506141241 | 44 | 338 | 0.0 | 0.0 | 0.00 | 0.18 | 0.18 | 98 | |
| 20260506140738 | 44 | 290 | 1.0 | 2.0 | 0.00 | 0.18 | 0.18 | 98 | |
| 20260506140235 | 44 | 202 | 0.0 | 3.0 | 0.00 | 0.18 | 0.18 | 98 | |
| 20260506135732 | 44 | 355 | 0.0 | 0.0 | 0.00 | 0.18 | 0.18 | 98 | |
| 20260506135228 | 44 | 318 | 1.0 | 2.0 | 0.00 | 0.18 | 0.18 | 98 | |
| 20260506134725 | 44 | 284 | 1.0 | 2.0 | 0.00 | 0.18 | 0.18 | 98 | |
| 20260506134221 | 44 | 309 | 0.0 | 1.0 | 0.00 | 0.18 | 0.18 | 98 | |
| 20260506133719 | 44 | 345 | 0.0 | 0.0 | 0.00 | 0.18 | 0.18 | 98 | |
| 20260506133215 | 44 | 342 | 0.0 | 2.0 | 0.00 | 0.18 | 0.18 | 98 | |
| 20260506132712 | 44 | 286 | 0.0 | 0.0 | 0.00 | 0.18 | 0.18 | 98 | |
| 20260506132209 | 44 | 336 | 0.0 | 1.0 | 0.00 | 0.18 | 0.18 | 98 | |
| 20260506131707 | 44 | 354 | 0.0 | 2.0 | 0.00 | 0.18 | 0.18 | 98 | |
| 20260506131203 | 44 | 309 | 1.0 | 2.0 | 0.05 | 0.18 | 0.18 | 98 | |
| 20260506130700 | 43 | 334 | 0.0 | 1.0 | 0.05 | 0.18 | 0.18 | 98 | |
| 20260506130157 | 43 | 225 | 2.0 | 2.0 | 0.00 | 0.17 | 0.17 | 98 | |
| 20260506125655 | 44 | 359 | 0.0 | 1.0 | 0.00 | 0.17 | 0.17 | 98 | |
| 20260506125152 | 43 | 349 | 0.0 | 1.0 | 0.00 | 0.17 | 0.17 | 98 | |
| 20260506124650 | 43 | 339 | 0.0 | 1.0 | 0.07 | 0.17 | 0.17 | 98 | |
| 20260506124148 | 43 | 320 | 0.0 | 1.0 | 0.07 | 0.17 | 0.17 | 98 | |
| 20260506123645 | 43 | 345 | 0.0 | 1.0 | 0.00 | 0.16 | 0.16 | 98 | |
| 20260506123144 | 43 | 273 | 0.0 | 1.0 | 0.05 | 0.16 | 0.16 | 98 | |
| 20260506122640 | 43 | 306 | 1.0 | 2.0 | 0.05 | 0.16 | 0.16 | 98 | |
| 20260506122138 | 43 | 287 | 2.0 | 3.0 | 0.00 | 0.15 | 0.15 | 98 | |
| 20260506121635 | 43 | 262 | 2.0 | 3.0 | 0.00 | 0.15 | 0.15 | 97 | |
| 20260506121131 | 43 | 308 | 3.0 | 3.0 | 0.00 | 0.15 | 0.15 | 97 | |
| 20260506120630 | 43 | 344 | 0.0 | 1.0 | 0.00 | 0.15 | 0.15 | 97 | |
| 20260506120126 | 43 | 293 | 2.0 | 3.0 | 0.00 | 0.15 | 0.15 | 97 | |
| 20260506115625 | 43 | 248 | 3.0 | 3.0 | 0.00 | 0.15 | 0.15 | 97 | |
| 20260506115123 | 43 | 283 | 0.0 | 3.0 | 0.00 | 0.15 | 0.15 | 97 | |
| 20260506114620 | 43 | 331 | 2.0 | 5.0 | 0.00 | 0.15 | 0.15 | 97 | |
| 20260506114118 | 43 | 306 | 1.0 | 2.0 | 0.00 | 0.15 | 0.15 | 97 | |
| 20260506113616 | 43 | 336 | 1.0 | 2.0 | 0.00 | 0.15 | 0.15 | 97 | |
| 20260506113113 | 43 | 323 | 0.0 | 0.0 | 0.00 | 0.15 | 0.15 | 97 | |
| 20260506112609 | 43 | 354 | 0.0 | 2.0 | 0.00 | 0.15 | 0.15 | 97 | |
| 20260506112107 | 43 | 338 | 0.0 | 1.0 | 0.00 | 0.15 | 0.15 | 97 | |
| 20260506111604 | 43 | 237 | 0.0 | 3.0 | 0.00 | 0.15 | 0.15 | 97 |